TimeMST,TemperatureF,Dew PointF,Humidity,Sea Level PressureIn,VisibilityMPH,Wind Direction,Wind SpeedMPH,Gust SpeedMPH,PrecipitationIn,Events,Conditions,WindDirDegrees,DateUTC
12:15 AM,55.4,10.4,17,30.22,10.0,North,9.2,-,N/A,,Clear,350,2013-02-27 07:15:00
12:35 AM,53.6,10.4,18,30.23,10.0,North,9.2,-,N/A,,Clear,360,2013-02-27 07:35:00
12:55 AM,53.6,10.4,18,30.23,10.0,North,16.1,-,N/A,,Clear,10,2013-02-27 07:55:00
1:15 AM,53.6,15.8,22,30.24,10.0,North,17.3,-,N/A,,Clear,360,2013-02-27 08:15:00
1:35 AM,51.8,15.8,24,30.25,10.0,North,16.1,21.9,N/A,,Clear,350,2013-02-27 08:35:00
1:55 AM,51.8,17.6,26,30.25,10.0,North,17.3,-,N/A,,Clear,350,2013-02-27 08:55:00
2:15 AM,51.8,15.8,24,30.26,10.0,North,16.1,24.2,N/A,Rain,Light Rain,350,2013-02-27 09:15:00
2:35 AM,50.0,15.8,26,30.27,10.0,NNW,17.3,24.2,N/A,,Clear,340,2013-02-27 09:35:00
2:55 AM,50.0,15.8,26,30.27,10.0,North,17.3,-,N/A,Rain,Light Rain,350,2013-02-27 09:55:00
3:15 AM,50.0,17.6,28,30.26,10.0,North,20.7,26.5,N/A,,Clear,360,2013-02-27 10:15:00
3:35 AM,48.2,15.8,27,30.26,10.0,North,19.6,27.6,N/A,Rain,Light Rain,350,2013-02-27 10:35:00
3:55 AM,48.2,17.6,30,30.26,10.0,North,20.7,-,N/A,,Clear,360,2013-02-27 10:55:00
4:35 AM,48.2,15.8,27,30.26,10.0,North,18.4,25.3,N/A,,Clear,350,2013-02-27 11:35:00
4:55 AM,48.2,15.8,27,30.26,10.0,North,19.6,23.0,N/A,,Clear,360,2013-02-27 11:55:00
5:15 AM,48.2,14.0,25,30.26,10.0,North,21.9,25.3,N/A,,Clear,360,2013-02-27 12:15:00
5:35 AM,48.2,14.0,25,30.28,10.0,North,18.4,26.5,N/A,,Clear,360,2013-02-27 12:35:00
5:55 AM,48.2,14.0,25,30.29,10.0,North,20.7,25.3,N/A,,Clear,360,2013-02-27 12:55:00
6:15 AM,48.2,14.0,25,30.30,10.0,North,19.6,29.9,N/A,,Clear,360,2013-02-27 13:15:00
6:35 AM,48.2,14.0,25,30.31,10.0,North,15.0,-,N/A,,Clear,360,2013-02-27 13:35:00
6:55 AM,46.4,14.0,27,30.31,10.0,North,16.1,24.2,N/A,,Clear,360,2013-02-27 13:55:00
7:15 AM,46.4,15.8,29,30.31,10.0,North,18.4,23.0,N/A,,Clear,360,2013-02-27 14:15:00
7:35 AM,46.4,15.8,29,30.32,10.0,North,18.4,-,N/A,,Clear,360,2013-02-27 14:35:00
7:55 AM,46.4,15.8,29,30.32,10.0,North,21.9,25.3,N/A,,Clear,350,2013-02-27 14:55:00
8:15 AM,48.2,15.8,27,30.33,10.0,North,19.6,25.3,N/A,,Clear,360,2013-02-27 15:15:00
8:35 AM,48.2,15.8,27,30.34,10.0,North,19.6,24.2,N/A,,Clear,360,2013-02-27 15:35:00
9:15 AM,50.0,15.8,26,30.36,10.0,North,18.4,24.2,N/A,Rain,Light Rain,350,2013-02-27 16:15:00
9:35 AM,50.0,14.0,24,30.36,10.0,North,23.0,29.9,N/A,Rain,Light Rain,350,2013-02-27 16:35:00
9:55 AM,50.0,14.0,24,30.36,10.0,North,24.2,32.2,N/A,Rain,Light Rain,350,2013-02-27 16:55:00
10:15 AM,51.8,14.0,22,30.37,10.0,NNW,25.3,31.1,N/A,Rain,Light Rain,340,2013-02-27 17:15:00
10:35 AM,53.6,10.4,18,30.36,10.0,NNW,25.3,32.2,N/A,Rain,Light Rain,340,2013-02-27 17:35:00
10:55 AM,53.6,10.4,18,30.36,10.0,NNW,25.3,33.4,N/A,Rain,Light Rain,340,2013-02-27 17:55:00
11:15 AM,53.6,14.0,21,30.36,10.0,NNW,25.3,29.9,N/A,Rain,Light Rain,340,2013-02-27 18:15:00
11:35 AM,55.4,10.4,17,30.35,10.0,NNW,26.5,32.2,N/A,Rain,Light Rain,340,2013-02-27 18:35:00
11:55 AM,55.4,8.6,15,30.34,10.0,North,24.2,28.8,N/A,Rain,Light Rain,350,2013-02-27 18:55:00
12:15 PM,57.2,10.4,16,30.34,10.0,NNW,26.5,32.2,N/A,Rain,Light Rain,340,2013-02-27 19:15:00
12:35 PM,57.2,12.2,17,30.33,10.0,NNW,18.4,28.8,N/A,Rain,Light Rain,340,2013-02-27 19:35:00
12:55 PM,57.2,8.6,14,30.32,10.0,North,23.0,28.8,N/A,Rain,Light Rain,350,2013-02-27 19:55:00
1:35 PM,59.0,10.4,15,30.30,10.0,NNW,23.0,33.4,N/A,Rain,Light Rain,340,2013-02-27 20:35:00
1:55 PM,59.0,10.4,15,30.29,10.0,NNW,23.0,31.1,N/A,Rain,Light Rain,340,2013-02-27 20:55:00
2:15 PM,59.0,10.4,15,30.28,10.0,NNW,25.3,34.5,N/A,Rain,Light Rain,340,2013-02-27 21:15:00
2:35 PM,59.0,10.4,15,30.27,10.0,NNW,21.9,31.1,N/A,Rain,Light Rain,340,2013-02-27 21:35:00
2:55 PM,60.8,8.6,13,30.26,10.0,NNW,25.3,33.4,N/A,Rain,Light Rain,340,2013-02-27 21:55:00
3:15 PM,60.8,8.6,13,30.26,10.0,NNW,26.5,32.2,N/A,Rain,Light Rain,340,2013-02-27 22:15:00
3:35 PM,60.8,6.8,12,30.26,10.0,NNW,20.7,33.4,N/A,Rain,Light Rain,340,2013-02-27 22:35:00
3:55 PM,62.6,8.6,12,30.25,10.0,NNW,25.3,29.9,N/A,Rain,Light Rain,340,2013-02-27 22:55:00
4:15 PM,62.6,6.8,11,30.26,10.0,NNW,20.7,-,N/A,Rain,Light Rain,330,2013-02-27 23:15:00
4:35 PM,62.6,6.8,11,30.26,10.0,NNW,20.7,24.2,N/A,Rain,Light Rain,330,2013-02-27 23:35:00
4:55 PM,62.6,6.8,11,30.25,10.0,NNW,19.6,-,N/A,Rain,Light Rain,340,2013-02-27 23:55:00
5:15 PM,62.6,6.8,11,30.25,10.0,NNW,20.7,27.6,N/A,Rain,Light Rain,340,2013-02-28 00:15:00
5:35 PM,60.8,8.6,13,30.25,10.0,NNW,20.7,25.3,N/A,Rain,Light Rain,340,2013-02-28 00:35:00
5:55 PM,60.8,8.6,13,30.25,10.0,NNW,19.6,-,N/A,Rain,Light Rain,340,2013-02-28 00:55:00
6:15 PM,60.8,8.6,13,30.26,10.0,NNW,17.3,26.5,N/A,,Clear,340,2013-02-28 01:15:00
6:35 PM,59.0,8.6,14,30.27,10.0,NNW,15.0,20.7,N/A,,Clear,340,2013-02-28 01:35:00
6:55 PM,59.0,6.8,13,30.28,10.0,North,12.7,-,N/A,,Clear,350,2013-02-28 01:55:00
7:15 PM,59.0,1.4,10,30.28,10.0,North,15.0,-,N/A,,Clear,360,2013-02-28 02:15:00
7:35 PM,57.2,10.4,16,30.29,10.0,NNW,11.5,-,N/A,,Clear,340,2013-02-28 02:35:00
7:55 PM,55.4,12.2,18,30.29,10.0,NNW,11.5,-,N/A,,Clear,340,2013-02-28 02:55:00
8:15 PM,55.4,6.8,14,30.29,10.0,North,9.2,-,N/A,,Clear,350,2013-02-28 03:15:00
8:35 PM,53.6,10.4,18,30.29,10.0,North,9.2,-,N/A,,Clear,350,2013-02-28 03:35:00
8:55 PM,55.4,5.0,13,30.29,10.0,North,11.5,-,N/A,,Clear,360,2013-02-28 03:55:00
9:15 PM,53.6,5.0,14,30.30,10.0,North,8.1,-,N/A,,Clear,360,2013-02-28 04:15:00
9:35 PM,53.6,5.0,14,30.30,10.0,NNE,6.9,-,N/A,,Clear,20,2013-02-28 04:35:00
9:55 PM,53.6,6.8,15,30.30,10.0,NE,5.8,-,N/A,,Clear,50,2013-02-28 04:55:00
10:15 PM,53.6,6.8,15,30.30,10.0,ENE,4.6,-,N/A,,Clear,60,2013-02-28 05:15:00
11:35 PM,51.8,6.8,16,30.32,10.0,NNE,9.2,-,N/A,,Clear,20,2013-02-28 06:35:00
11:55 PM,51.8,6.8,16,30.32,10.0,North,6.9,-,N/A,,Clear,10,2013-02-28 06:55:00